[[{"header":{"parameterUnit":"m.s-1","parameterCategory":1,"la1":30.2991,"la2":30.254,"lo1":-89.0895,"lo2":-89.0444,"dy":0.0017,"dx":0.0017,"nx":28,"ny":28,"refTime":"2023-04-01T21:00:00:Z","depth":0,"parameterNumber":2,"parameterNumberName":"U-component_of_WINDS"},"data":[0,0,0,0,0,0,0,0,0,0,0,0,0,0,0,0,0,0,0,0,0,0,0,0,0,0,0,0,0,0,0,0,0,0,0,0,0,0,0,0,0,0,0,0,0,0,0,0,0,0,0,0,0,0,0,0,0,0,0.6927,0.6928,0,0.6952,0.6953,0.6953,0.6896,0.6895,0.6893,0.6891,0.6922,0.6924,0.6927,0,0,0,0,0,0,0,0,0,0,0,0,0,0.6835,0.6837,0.6927,0.6928,0.6928,0.6952,0.6953,0.6953,0.6897,0.6895,0.6892,0.689,0.6921,0.6924,0.6927,0,0,0,0,0,0,0,0,0,0,0,0,0,0.6869,0.6837,0.6927,0.6903,0.6901,0.6952,0.6953,0.6953,0.6897,0.6895,0.6892,0.6889,0.692,0.6924,0.6928,0.7006,0,0,0.6939,0.6941,0,0,0,0,0,0,0,0,0.6867,0.6873,0.6906,0.6905,0.6902,0.6918,0.6931,0.6971,0.6898,0.6899,0.6891,0.6888,0.6923,0.6927,0.6938,0.7007,0.7008,0.6939,0.6942,0.6943,0.6944,0,0,0,0,0,0,0,0.6865,0.6871,0.6937,0.6907,0.6904,0.6892,0.6894,0.6939,0.6926,0.6899,0.6894,0.6898,0.6922,0.6934,0.6938,0.7009,0.6939,0.6943,0.6945,0.6947,0.7143,0.7146,0,0,0,0,0,0,0.6865,0.687,0.6937,0.6938,0.6878,0.6896,0.6898,0.6916,0.6926,0.6924,0.69,0.6895,0.6929,0.6934,0.6939,0.703,0.6943,0.6947,0.6949,0.714,0.7144,0.7147,0,0,0,0,0,0,0.6863,0.6872,0.6936,0.6903,0.691,0.69,0.6921,0.6918,0.693,0.6927,0.6925,0.6915,0.6927,0.6933,0.6989,0.7031,0.6949,0.6952,0.7137,0.7141,0.7145,0.7215,0,0,0,0,0,0,0.6861,0.6871,0.69,0.6904,0.6912,0.6984,0.6924,0.6921,0.6936,0.693,0.694,0.6939,0.6925,0.6983,0.6993,0.7034,0.6955,0.7133,0.7139,0.7144,0.7209,0.7221,0.7231,0,0,0,0,0,0.6858,0.692,0.6902,0.691,0.6947,0.6987,0.6992,0.6973,0.694,0.6969,0.6967,0.6939,0.7024,0.699,0.6999,0.7043,0.713,0.7137,0.7143,0.7203,0.7218,0.7231,0,0,0,0,0,0,0.6924,0.692,0.69,0.6965,0.6976,0.6977,0.7014,0.699,0.7013,0.7006,0.6983,0.6986,0.7046,0.705,0.7011,0.7119,0.7072,0.7081,0.7114,0.7128,0.7139,0.7138,0.6958,0,0,0,0,0,0.6945,0.6976,0.6972,0.703,0.7036,0.7024,0.7041,0.7025,0.7037,0.7042,0.7044,0.7058,0.7088,0.7108,0.7135,0.7208,0.721,0.7243,0.7254,0.7264,0.7272,0.7311,0.7325,0.7169,0.7169,0.7168,0,0,0.6991,0.6993,0.7015,0.7043,0.705,0.7084,0.7029,0.7067,0.7092,0.7049,0.71,0.7102,0.7116,0.718,0.7209,0.7186,0.7316,0.7272,0.728,0.7283,0.7319,0.7334,0.7347,0.7173,0.7172,0.7172,0,0,0.7092,0.7097,0.7145,0.7152,0.7163,0.7154,0.7166,0.717,0.7169,0.722,0.7187,0.7218,0.727,0.7281,0.7293,0.7396,0.7372,0.7406,0.7466,0.7504,0.7516,0.7527,0.7564,0.7578,0.7414,0.7414,0.7415,0,0.7149,0.7197,0.7173,0.7213,0.7226,0.7186,0.7235,0.7244,0.7264,0.7275,0.7248,0.7311,0.7318,0.7384,0.7409,0.7421,0.7434,0.7405,0.7516,0.7527,0.7537,0.7572,0.7586,0.7419,0.7418,0.7418,0.7417,0,0.7265,0.7299,0.7337,0.7355,0.7372,0.7417,0.7401,0.7422,0.7405,0.7399,0.7452,0.7458,0.7486,0.75,0.7485,0.7564,0.7549,0.752,0.7472,0.7556,0.7589,0.7602,0.7424,0.7423,0.7422,0.7421,0,0,0.741,0.7412,0.7427,0.7434,0.7442,0.7468,0.7511,0.7536,0.7555,0.7569,0.7605,0.7649,0.7621,0.7636,0.7621,0.7654,0.7735,0.762,0.762,0.7642,0.7823,0.7846,0.7862,0.7718,0.772,0.7722,0.7822,0,0.751,0.7581,0.756,0.7633,0.7664,0.7625,0.7662,0.7672,0.7667,0.7694,0.769,0.7721,0.7682,0.769,0.7721,0.7719,0.7772,0.7711,0.7752,0.7754,0.7751,0.7879,0.7903,0.7997,0.7835,0.7837,0.7839,0,0.7636,0.7653,0.7728,0.7729,0.7742,0.7775,0.7796,0.7822,0.7832,0.7826,0.7841,0.7819,0.7862,0.7813,0.7873,0.7832,0.7848,0.7849,0.7852,0.7856,0.7802,0.7887,0.8027,0.8041,0.7858,0.7857,0.7855,0,0.7734,0.7776,0.7826,0.7833,0.7837,0.7861,0.7864,0.7871,0.7887,0.7906,0.7916,0.794,0.7954,0.7973,0.7959,0.7924,0.8021,0.7971,0.8018,0.8019,0.8041,0.804,0.8186,0.805,0.805,0.805,0.8049,0,0.7848,0.7895,0.787,0.7901,0.7953,0.7929,0.7981,0.798,0.7986,0.8017,0.7986,0.8016,0.7994,0.8022,0.8011,0.8062,0.8069,0.8066,0.8063,0.8069,0.807,0.808,0.8073,0.8053,0.8053,0.8052,0.8051,0,0.7966,0.7951,0.8003,0.8001,0.8002,0.804,0.8039,0.8068,0.8061,0.81,0.8108,0.8097,0.8128,0.8115,0.8149,0.8142,0.8207,0.8195,0.8203,0.82,0.8249,0.8245,0.8407,0.8427,0.8278,0.8279,0.8281,0,0.804,0.8075,0.8077,0.8094,0.8098,0.8127,0.8142,0.812,0.8138,0.8151,0.8179,0.8207,0.8229,0.8281,0.8277,0.8303,0.8291,0.8346,0.8295,0.83,0.8293,0.8291,0.8295,0.8357,0.8359,0.836,0.8362,0,0.8173,0.8163,0.8186,0.8206,0.8225,0.824,0.8253,0.8269,0.8247,0.8269,0.83,0.8316,0.8349,0.8378,0.8401,0.8405,0.8381,0.8377,0.839,0.8397,0.8401,0.84,0.8232,0.8374,0.8373,0.8372,0.8371,0.8371,0.8272,0.8301,0.8306,0.8332,0.8339,0.8351,0.8378,0.8373,0.8397,0.8421,0.8407,0.8443,0.8452,0.8479,0.8487,0.8515,0.8494,0.8512,0.8517,0.8522,0.8528,0.8395,0.852,0.8519,0.8519,0.8519,0.8518,0,0.8403,0.8404,0.8428,0.8445,0.8466,0.8438,0.8451,0.847,0.8502,0.8511,0.8532,0.8568,0.8595,0.8593,0.8618,0.8642,0.8631,0.8649,0.8648,0.8649,0.8546,0.8533,0.8657,0.8657,0.8657,0.8657,0.8657,0.8657,0.8474,0.8521,0.8512,0.8563,0.8564,0.8597,0.8607,0.8618,0.8625,0.8666,0.8687,0.8685,0.869,0.8715,0.8739,0.8738,0.8749,0.8772,0.8766,0.867,0.8656,0.8643,0.8631,0.8774,0.8774,0.8867,0.8868,0.8869]},{"header":{"parameterUnit":"m.s-1","parameterCategory":1,"la1":30.2991,"la2":30.254,"lo1":-89.0895,"lo2":-89.0444,"dy":0.0017,"dx":0.0017,"nx":28,"ny":28,"refTime":"2023-04-01T21:00:00:Z","depth":0,"parameterNumber":3,"parameterNumberName":"V-component_of_WINDS"},"data":[0,0,0,0,0,0,0,0,0,0,0,0,0,0,0,0,0,0,0,0,0,0,0,0,0,0,0,0,0,0,0,0,0,0,0,0,0,0,0,0,0,0,0,0,0,0,0,0,0,0,0,0,0,0,0,0,0,0,-0.3814,-0.3813,0,-0.3765,-0.3765,-0.3764,-0.3812,-0.3814,-0.3816,-0.3818,-0.3765,-0.3762,-0.3759,0,0,0,0,0,0,0,0,0,0,0,0,0,-0.3946,-0.3943,-0.3814,-0.3813,-0.3813,-0.3766,-0.3765,-0.3764,-0.3812,-0.3814,-0.3817,-0.3819,-0.3766,-0.3762,-0.3759,0,0,0,0,0,0,0,0,0,0,0,0,0,-0.3892,-0.3942,-0.3814,-0.3831,-0.3832,-0.3766,-0.3765,-0.3764,-0.3811,-0.3814,-0.3817,-0.382,-0.3767,-0.3763,-0.3758,-0.3672,0,0,-0.3743,-0.3741,0,0,0,0,0,0,0,0,-0.3895,-0.3887,-0.3829,-0.383,-0.3831,-0.3798,-0.3792,-0.3733,-0.3811,-0.3819,-0.3818,-0.3821,-0.3773,-0.3768,-0.3753,-0.3669,-0.3667,-0.3743,-0.374,-0.3738,-0.3737,0,0,0,0,0,0,0,-0.3899,-0.3889,-0.3795,-0.3828,-0.3829,-0.384,-0.3836,-0.3781,-0.3781,-0.3819,-0.3822,-0.3816,-0.3774,-0.3757,-0.3752,-0.3666,-0.3743,-0.3739,-0.3736,-0.3734,-0.3509,-0.3506,0,0,0,0,0,0,-0.3901,-0.3892,-0.3796,-0.3793,-0.3871,-0.3836,-0.3831,-0.3805,-0.3782,-0.3781,-0.3813,-0.3818,-0.3764,-0.3758,-0.375,-0.3647,-0.3738,-0.3734,-0.3731,-0.3512,-0.3508,-0.3505,0,0,0,0,0,0,-0.3904,-0.3892,-0.3798,-0.3844,-0.3833,-0.383,-0.3802,-0.3803,-0.3786,-0.3778,-0.3778,-0.3796,-0.3766,-0.3757,-0.3691,-0.3646,-0.3732,-0.3727,-0.3516,-0.3511,-0.3507,-0.344,0,0,0,0,0,0,-0.3907,-0.3893,-0.386,-0.3843,-0.383,-0.374,-0.3799,-0.38,-0.3778,-0.3784,-0.3761,-0.376,-0.3768,-0.3698,-0.3686,-0.3641,-0.3723,-0.352,-0.3514,-0.3508,-0.3446,-0.3434,-0.3423,0,0,0,0,0,-0.3912,-0.3842,-0.3858,-0.3846,-0.3789,-0.3737,-0.373,-0.3741,-0.3774,-0.3741,-0.3736,-0.3761,-0.3653,-0.3691,-0.3678,-0.3631,-0.3523,-0.3515,-0.3509,-0.3452,-0.3436,-0.3423,0,0,0,0,0,0,-0.3853,-0.384,-0.3858,-0.3781,-0.376,-0.3746,-0.3704,-0.3724,-0.3692,-0.3699,-0.3713,-0.3707,-0.3637,-0.3628,-0.367,-0.3546,-0.3593,-0.3583,-0.3554,-0.354,-0.3528,-0.3531,-0.3719,0,0,0,0,0,-0.3832,-0.3791,-0.3782,-0.3715,-0.3704,-0.3706,-0.3684,-0.3694,-0.3672,-0.3663,-0.3653,-0.363,-0.3592,-0.3566,-0.3529,-0.3446,-0.3441,-0.3407,-0.3396,-0.3386,-0.3377,-0.3332,-0.3316,-0.3482,-0.3482,-0.3482,0,0,-0.3786,-0.3774,-0.3748,-0.3703,-0.3688,-0.3645,-0.3698,-0.365,-0.3618,-0.3656,-0.3593,-0.3585,-0.356,-0.3485,-0.3452,-0.3475,-0.3331,-0.3377,-0.337,-0.3365,-0.3323,-0.3307,-0.3293,-0.3477,-0.3478,-0.3479,0,0,-0.3681,-0.3668,-0.3611,-0.3596,-0.3573,-0.3575,-0.3561,-0.3544,-0.354,-0.3478,-0.3505,-0.3467,-0.34,-0.3381,-0.3363,-0.3253,-0.3274,-0.3241,-0.3179,-0.3135,-0.3122,-0.311,-0.307,-0.3055,-0.3232,-0.3232,-0.3232,0,-0.3627,-0.3564,-0.3579,-0.353,-0.3509,-0.3543,-0.3485,-0.3469,-0.3434,-0.3419,-0.3447,-0.3363,-0.3349,-0.327,-0.3243,-0.3228,-0.3212,-0.3242,-0.3123,-0.3111,-0.3101,-0.3062,-0.3047,-0.3228,-0.3228,-0.3229,-0.3229,0,-0.3498,-0.3454,-0.3411,-0.3378,-0.3353,-0.3299,-0.3306,-0.3279,-0.3292,-0.329,-0.3226,-0.3211,-0.3172,-0.3155,-0.3167,-0.3077,-0.3092,-0.3121,-0.3169,-0.3081,-0.3045,-0.303,-0.3222,-0.3223,-0.3225,-0.3226,0,0,-0.3352,-0.3331,-0.3314,-0.33,-0.3278,-0.3244,-0.3192,-0.3156,-0.3131,-0.3107,-0.3063,-0.3007,-0.3033,-0.3012,-0.3023,-0.2984,-0.2897,-0.3018,-0.3017,-0.2994,-0.2796,-0.2774,-0.2756,-0.2912,-0.2909,-0.2907,-0.2798,0,-0.3246,-0.3156,-0.3169,-0.3082,-0.3042,-0.3074,-0.3029,-0.301,-0.3008,-0.2973,-0.2971,-0.293,-0.2969,-0.2956,-0.292,-0.2915,-0.2857,-0.2923,-0.287,-0.2867,-0.2873,-0.2738,-0.2713,-0.2611,-0.2784,-0.2782,-0.278,0,-0.3109,-0.3081,-0.299,-0.2976,-0.2959,-0.2918,-0.2886,-0.2852,-0.2832,-0.2833,-0.281,-0.2828,-0.2775,-0.2826,-0.2753,-0.2798,-0.2777,-0.2771,-0.2768,-0.2761,-0.2817,-0.2726,-0.2579,-0.2562,-0.2758,-0.276,-0.2762,0,-0.301,-0.295,-0.2888,-0.2875,-0.2856,-0.2827,-0.2817,-0.28,-0.2777,-0.2749,-0.2735,-0.27,-0.2681,-0.2654,-0.2661,-0.2697,-0.2586,-0.2637,-0.2584,-0.2584,-0.2557,-0.2559,-0.2403,-0.2547,-0.2547,-0.2548,-0.2548,0,-0.2888,-0.2831,-0.2844,-0.2805,-0.2742,-0.2758,-0.2695,-0.269,-0.2674,-0.2635,-0.2662,-0.2624,-0.2637,-0.26,-0.2606,-0.2544,-0.2535,-0.2534,-0.2536,-0.253,-0.253,-0.2515,-0.2522,-0.2544,-0.2545,-0.2545,-0.2546,0,-0.2766,-0.2772,-0.2707,-0.2695,-0.2691,-0.2645,-0.2635,-0.2598,-0.26,-0.255,-0.2539,-0.254,-0.2498,-0.2503,-0.2456,-0.246,-0.2382,-0.2394,-0.2389,-0.2391,-0.2337,-0.2342,-0.2165,-0.2142,-0.2303,-0.2301,-0.23,0,-0.2686,-0.2644,-0.2628,-0.2604,-0.2593,-0.2554,-0.2532,-0.2546,-0.2521,-0.2496,-0.2462,-0.2423,-0.2392,-0.2323,-0.2319,-0.2283,-0.2292,-0.2233,-0.2287,-0.2283,-0.2289,-0.2291,-0.2286,-0.2221,-0.222,-0.2218,-0.2217,0,-0.2545,-0.2551,-0.2517,-0.2485,-0.2458,-0.2433,-0.2411,-0.239,-0.2402,-0.2373,-0.2331,-0.2307,-0.226,-0.222,-0.2187,-0.2176,-0.2197,-0.2201,-0.2186,-0.2179,-0.2177,-0.2176,-0.2358,-0.2204,-0.2205,-0.2206,-0.2207,-0.2207,-0.244,-0.2404,-0.2387,-0.235,-0.2335,-0.2314,-0.2279,-0.2277,-0.2242,-0.2205,-0.2216,-0.2168,-0.215,-0.2107,-0.2093,-0.2056,-0.2077,-0.2057,-0.2051,-0.2045,-0.2038,-0.2186,-0.205,-0.205,-0.2051,-0.2051,-0.2051,0,-0.2299,-0.229,-0.2256,-0.2224,-0.2195,-0.222,-0.2197,-0.217,-0.2128,-0.211,-0.2079,-0.2031,-0.1993,-0.1986,-0.195,-0.1921,-0.193,-0.191,-0.1911,-0.1908,-0.2021,-0.2037,-0.1904,-0.1904,-0.1904,-0.1904,-0.1904,-0.1904,-0.2221,-0.216,-0.2164,-0.2096,-0.2088,-0.2042,-0.2027,-0.2007,-0.1992,-0.1938,-0.1906,-0.1904,-0.1889,-0.1853,-0.1819,-0.1818,-0.1802,-0.1778,-0.1781,-0.1886,-0.1901,-0.1915,-0.1929,-0.1776,-0.1775,-0.1671,-0.167,-0.1669]}]]